Weather History for Marion, OH

Change the Weather History Date:

Monday, January 21, 2013

  Actual Average (KDLZ) Record (KDLZ)
Temperature  
Mean Temperature 14 °F -  
Max Temperature 19 °F 33 °F 60 °F (1974)
Min Temperature 8 °F 16 °F -22 °F (1984)
Degree Days  
Heating Degree Days 52    
Moisture  
Dew Point 8 °F    
Average Humidity 69    
Maximum Humidity 93    
Minimum Humidity 58    
Precipitation  
Precipitation 0.00 in - - ()
Sea Level Pressure  
Sea Level Pressure 30.06 in    
Wind  
Wind Speed 11 mph (West)    
Max Wind Speed 23 mph    
Max Gust Speed 34 mph    
Visibility 6 miles    
Events Snow    
Averages and records for this station are not official NWS values.
T = Trace of Precipitation, MM = Missing Value Source: NWS Daily Summary

Daily Weather History Graph

Daily Weather History Graph

Search for Another Location

Airport:

Trip Planner

Search our weather history database for the weather conditions in past years. The results will help you decide how hot, cold, wet, or windy it might be!

Date:

Astronomy

Jan. 21, 2013 Rise Set
Actual Time 7:50 AM EST 5:37 PM EST
Civil Twilight 7:20 AM EST 6:06 PM EST
Nautical Twilight 6:47 AM EST 6:40 PM EST
Astronomical Twilight 6:15 AM EST 7:12 PM EST
Moon 1:16 PM EST (1/21) 3:17 AM EST (1/21)
Length of Visible Light 10h 45m
Length of Day
9h 46m
Waxing Gibbous, 75% of the Moon is Illuminated
Jan 21
Waxing Gibbous
Jan 26
Full
Feb 3
Last Quarter
Feb 10
New
Feb 17
First Quarter

Hourly Weather History & Observations

Time (EST) Temp. Windchill Dew Point Humidity Pressure Visibility Wind Dir Wind Speed Gust Speed Precip Events Conditions
12:53 AM 19.9 °F 12.1 °F 10.9 °F 68% 30.18 in 10.0 mi NNW 5.8 mph - N/A   Overcast
1:53 AM 19.0 °F 9.0 °F 10.0 °F 68% 30.16 in 10.0 mi NW 8.1 mph - N/A   Overcast
2:53 AM 19.0 °F 11.1 °F 9.0 °F 65% 30.15 in 10.0 mi NW 5.8 mph - N/A   Overcast
3:53 AM 19.0 °F 10.0 °F 8.1 °F 62% 30.13 in 10.0 mi NW 6.9 mph - N/A   Overcast
4:53 AM 19.0 °F 12.3 °F 8.1 °F 62% 30.12 in 10.0 mi WNW 4.6 mph - N/A   Overcast
5:53 AM 19.0 °F 11.1 °F 8.1 °F 62% 30.11 in 10.0 mi West 5.8 mph - N/A   Overcast
7:43 AM 17.6 °F 8.2 °F 10.4 °F 73% 30.03 in 10.0 mi WSW 6.9 mph - N/A   Overcast
7:50 AM 19.4 °F 11.5 °F 10.4 °F 68% 30.03 in 10.0 mi WSW 5.8 mph - N/A   Overcast
7:53 AM 19.0 °F 11.1 °F 10.0 °F 68% 30.08 in 10.0 mi WSW 5.8 mph - N/A   Overcast
8:27 AM 19.4 °F 10.4 °F 10.4 °F 68% 30.03 in 10.0 mi WSW 6.9 mph - N/A   Overcast
8:53 AM 19.0 °F 11.1 °F 12.0 °F 74% 30.08 in 2.5 mi WSW 5.8 mph - 0.00 in Snow Light Snow
9:00 AM 19.4 °F 10.4 °F 12.2 °F 74% 30.03 in 3.0 mi West 6.9 mph - 0.00 in Snow Light Snow
9:05 AM 19.4 °F 10.4 °F 12.2 °F 74% 30.03 in 2.5 mi West 6.9 mph - 0.00 in Snow Light Snow
9:16 AM 19.4 °F 7.2 °F 12.2 °F 74% 30.02 in 3.0 mi West 11.5 mph 18.4 mph 0.00 in Snow Light Snow
9:25 AM 19.4 °F 6.6 °F 12.2 °F 74% 30.03 in 1.8 mi West 12.7 mph - 0.00 in Snow Light Snow
9:31 AM 19.4 °F 7.9 °F 15.8 °F 86% 30.03 in 0.8 mi West 10.4 mph - 0.00 in Snow Light Snow
9:42 AM 17.6 °F 5.0 °F 15.8 °F 93% 30.03 in 1.2 mi WNW 11.5 mph - 0.00 in Snow Light Snow
9:53 AM 19.0 °F 5.6 °F 14.0 °F 81% 30.07 in 2.5 mi WNW 13.8 mph 20.7 mph 0.00 in Snow Light Snow
10:00 AM 19.4 °F 5.5 °F 12.2 °F 74% 30.03 in 9.0 mi WNW 15.0 mph 20.7 mph 0.00 in   Overcast
10:15 AM 19.4 °F 6.6 °F 12.2 °F 74% 30.03 in 10.0 mi West 12.7 mph - 0.00 in   Overcast
10:25 AM 19.4 °F 6.0 °F 10.4 °F 68% 30.02 in 9.0 mi West 13.8 mph 21.9 mph 0.00 in Snow Light Snow
10:53 AM 19.0 °F 5.0 °F 9.0 °F 65% 30.08 in 10.0 mi West 15.0 mph 21.9 mph 0.00 in   Scattered Clouds
11:53 AM 18.0 °F 2.2 °F 9.0 °F 68% 30.06 in 7.0 mi West 18.4 mph 26.5 mph 0.00 in Snow Light Snow
12:42 PM 17.6 °F 1.7 °F 10.4 °F 73% 29.99 in 2.5 mi West 18.4 mph 23.0 mph 0.00 in Snow Light Snow
12:49 PM 19.4 °F 4.1 °F 8.6 °F 63% 30.00 in 7.0 mi West 18.4 mph 28.8 mph 0.00 in Snow Light Snow
12:53 PM 19.0 °F 4.0 °F 9.0 °F 65% 30.05 in 8.0 mi West 17.3 mph 27.6 mph 0.00 in Snow Light Snow
1:03 PM 17.6 °F 2.2 °F 8.6 °F 68% 30.00 in 1.8 mi WNW 17.3 mph 28.8 mph 0.00 in Snow Light Snow
1:09 PM 17.6 °F 1.7 °F 8.6 °F 68% 30.00 in 1.0 mi West 18.4 mph 28.8 mph 0.00 in Snow Light Snow
1:13 PM 17.6 °F 1.7 °F 8.6 °F 68% 30.00 in 2.0 mi West 18.4 mph 27.6 mph 0.00 in Snow Light Snow
1:20 PM 17.6 °F 1.7 °F 6.8 °F 63% 29.99 in 9.0 mi West 18.4 mph 24.2 mph 0.00 in   Overcast
1:39 PM 17.6 °F 0.9 °F 8.6 °F 68% 30.00 in 1.8 mi West 20.7 mph 31.1 mph 0.00 in Snow Light Snow
1:42 PM 17.6 °F 2.2 °F 10.4 °F 73% 30.00 in 0.8 mi West 17.3 mph 31.1 mph 0.00 in Snow Light Snow
1:53 PM 17.1 °F -0.3 °F 9.0 °F 71% 30.05 in 1.0 mi West 21.9 mph 31.1 mph 0.00 in Snow Light Snow
1:56 PM 17.6 °F 0.9 °F 8.6 °F 68% 30.00 in 2.0 mi West 20.7 mph 31.1 mph 0.00 in Snow Light Snow
2:09 PM 15.8 °F -1.5 °F 8.6 °F 73% 30.00 in 1.5 mi West 20.7 mph 27.6 mph 0.00 in Snow Light Snow
2:14 PM 15.8 °F -1.5 °F 6.8 °F 68% 30.00 in 3.0 mi West 20.7 mph 29.9 mph 0.00 in Snow Light Snow
2:29 PM 17.6 °F 2.7 °F 5.0 °F 58% 30.00 in 10.0 mi West 16.1 mph 29.9 mph 0.00 in   Mostly Cloudy
2:53 PM 16.0 °F -0.4 °F 7.0 °F 68% 30.07 in 3.0 mi West 18.4 mph 34.5 mph 0.00 in Snow Light Snow
3:25 PM 15.8 °F -1.1 °F 6.8 °F 68% 30.02 in 2.0 mi West 19.6 mph 27.6 mph 0.00 in Snow Light Snow
3:31 PM 15.8 °F 0.3 °F 6.8 °F 68% 30.03 in 3.0 mi West 16.1 mph 27.6 mph 0.00 in Snow Light Snow
3:44 PM 15.8 °F -0.2 °F 6.8 °F 68% 30.03 in 2.5 mi West 17.3 mph 33.4 mph 0.00 in Snow Light Snow
3:51 PM 15.8 °F 1.4 °F 5.0 °F 62% 30.03 in 3.0 mi West 13.8 mph 25.3 mph 0.00 in Snow Light Snow
3:52 PM 16.0 °F 1.7 °F 5.0 °F 62% 30.09 in 4.0 mi West 13.8 mph 25.3 mph 0.00 in Snow Light Snow
4:53 PM 15.1 °F -1.6 °F 3.0 °F 59% 30.10 in 9.0 mi West 18.4 mph 25.3 mph 0.00 in   Mostly Cloudy
5:53 PM 14.0 °F -2.5 °F 6.1 °F 71% 30.12 in 2.0 mi WNW 17.3 mph 27.6 mph 0.00 in Snow Light Snow
6:03 PM 14.0 °F -4.7 °F 3.2 °F 62% 30.06 in 8.0 mi West 23.0 mph 31.1 mph 0.00 in Snow Light Snow
6:53 PM 12.0 °F -4.0 °F 1.0 °F 61% 30.14 in 10.0 mi West 15.0 mph - 0.00 in   Clear
7:53 PM 10.9 °F -5.9 °F -0.0 °F 61% 30.16 in 10.0 mi West 16.1 mph 27.6 mph N/A   Partly Cloudy
8:53 PM 10.0 °F -6.5 °F 1.9 °F 70% 30.17 in 7.0 mi West 15.0 mph - N/A   Mostly Cloudy
9:11 PM 10.4 °F -5.4 °F 3.2 °F 73% 30.11 in 2.5 mi West 13.8 mph 23.0 mph 0.00 in Snow Light Snow
9:20 PM 8.6 °F -8.9 °F 3.2 °F 79% 30.11 in 6.0 mi West 16.1 mph 20.7 mph 0.00 in Snow Light Snow
9:44 PM 8.6 °F -7.7 °F 1.4 °F 73% 30.12 in 10.0 mi West 13.8 mph 19.6 mph 0.00 in   Mostly Cloudy
9:53 PM 9.0 °F -6.6 °F -0.9 °F 64% 30.18 in 10.0 mi WNW 12.7 mph 19.6 mph 0.00 in   Scattered Clouds
10:53 PM 9.0 °F -7.3 °F -2.9 °F 59% 30.19 in 10.0 mi West 13.8 mph 24.2 mph N/A   Clear
11:53 PM 8.1 °F -9.0 °F -4.0 °F 58% 30.20 in 10.0 mi West 15.0 mph 21.9 mph N/A   Clear